TimeCST,TemperatureF,Dew PointF,Humidity,Sea Level PressureIn,VisibilityMPH,Wind Direction,Wind SpeedMPH,Gust SpeedMPH,PrecipitationIn,Events,Conditions,WindDirDegrees,DateUTC
12:15 AM,14.0,8.6,79,30.14,10.0,NNW,11.5,-,N/A,,Clear,330,2013-01-06 06:15:00
12:35 AM,14.0,8.6,79,30.14,10.0,NNW,10.4,-,N/A,,Clear,330,2013-01-06 06:35:00
12:56 AM,12.2,8.6,85,30.15,10.0,NNW,8.1,-,N/A,,Clear,330,2013-01-06 06:56:00
1:15 AM,12.2,8.6,85,30.15,10.0,NW,6.9,-,N/A,,Clear,310,2013-01-06 07:15:00
1:35 AM,12.2,8.6,85,30.14,10.0,NW,8.1,-,N/A,,Clear,310,2013-01-06 07:35:00
1:55 AM,10.4,6.8,85,30.15,10.0,NW,10.4,-,N/A,,Clear,320,2013-01-06 07:55:00
2:15 AM,10.4,6.8,85,30.15,10.0,NNW,5.8,-,N/A,,Clear,330,2013-01-06 08:15:00
2:36 AM,10.4,5.0,79,30.16,10.0,NNW,5.8,-,N/A,,Clear,340,2013-01-06 08:36:00
2:55 AM,10.4,6.8,85,30.17,10.0,NW,6.9,-,N/A,,Clear,310,2013-01-06 08:55:00
3:16 AM,10.4,5.0,79,30.18,10.0,NW,10.4,-,N/A,,Clear,310,2013-01-06 09:16:00
3:36 AM,8.6,5.0,85,30.17,10.0,WNW,10.4,-,N/A,,Clear,290,2013-01-06 09:36:00
3:55 AM,8.6,5.0,85,30.17,5.0,Calm,Calm,-,N/A,Snow,Light Snow,0,2013-01-06 09:55:00
4:16 AM,10.4,6.8,85,30.18,5.0,West,6.9,-,N/A,Snow,Light Snow,280,2013-01-06 10:16:00
4:36 AM,10.4,5.0,79,30.17,7.0,WNW,8.1,-,N/A,,Clear,290,2013-01-06 10:36:00
4:55 AM,8.6,5.0,85,30.17,7.0,West,5.8,-,N/A,,Clear,270,2013-01-06 10:55:00
5:16 AM,6.8,3.2,85,30.17,7.0,West,4.6,-,N/A,,Clear,260,2013-01-06 11:16:00
5:36 AM,5.0,1.4,85,30.17,7.0,Calm,Calm,-,N/A,,Clear,0,2013-01-06 11:36:00
5:55 AM,6.8,3.2,85,30.18,7.0,West,8.1,-,N/A,,Clear,260,2013-01-06 11:55:00
6:16 AM,6.8,3.2,85,30.18,10.0,West,4.6,-,N/A,,Clear,260,2013-01-06 12:16:00
6:35 AM,6.8,3.2,85,30.19,10.0,Calm,Calm,-,N/A,,Clear,0,2013-01-06 12:35:00
6:55 AM,5.0,1.4,85,30.20,7.0,Calm,Calm,-,N/A,,Clear,0,2013-01-06 12:55:00
7:16 AM,5.0,1.4,85,30.19,10.0,Calm,Calm,-,N/A,,Clear,0,2013-01-06 13:16:00
7:35 AM,5.0,1.4,85,30.19,10.0,Calm,Calm,-,N/A,,Clear,0,2013-01-06 13:35:00
7:56 AM,3.2,-0.4,85,30.20,7.0,Calm,Calm,-,N/A,,Clear,0,2013-01-06 13:56:00
8:16 AM,3.2,-0.4,85,30.20,7.0,Calm,Calm,-,N/A,,Clear,0,2013-01-06 14:16:00
8:35 AM,3.2,-0.4,85,30.21,10.0,Calm,Calm,-,N/A,,Clear,0,2013-01-06 14:35:00
8:56 AM,3.2,-0.4,85,30.21,10.0,Calm,Calm,-,N/A,,Clear,0,2013-01-06 14:56:00
9:16 AM,3.2,-0.4,85,30.22,10.0,SW,3.5,-,N/A,,Clear,220,2013-01-06 15:16:00
9:35 AM,5.0,-0.4,78,30.22,10.0,SW,3.5,-,N/A,,Clear,220,2013-01-06 15:35:00
9:56 AM,8.6,3.2,79,30.22,7.0,West,4.6,-,N/A,,Clear,260,2013-01-06 15:56:00
10:16 AM,8.6,5.0,85,30.23,10.0,Calm,Calm,-,N/A,,Clear,0,2013-01-06 16:16:00
10:35 AM,10.4,5.0,79,30.24,7.0,Calm,Calm,-,N/A,,Clear,0,2013-01-06 16:35:00
10:56 AM,10.4,6.8,85,30.24,10.0,Calm,Calm,-,N/A,,Clear,0,2013-01-06 16:56:00
11:36 AM,12.2,8.6,85,30.22,10.0,Calm,Calm,-,N/A,,Clear,0,2013-01-06 17:36:00
12:15 PM,14.0,8.6,79,30.21,10.0,Calm,Calm,-,N/A,,Clear,0,2013-01-06 18:15:00
12:36 PM,15.8,8.6,73,30.20,10.0,Calm,Calm,-,N/A,,Clear,0,2013-01-06 18:36:00
12:56 PM,15.8,10.4,79,30.19,10.0,SW,4.6,-,N/A,,Clear,220,2013-01-06 18:56:00
1:15 PM,17.6,10.4,73,30.19,10.0,SSW,4.6,-,N/A,,Clear,200,2013-01-06 19:15:00
1:35 PM,17.6,12.2,79,30.18,10.0,SSW,4.6,-,N/A,,Clear,200,2013-01-06 19:35:00
1:56 PM,17.6,12.2,79,30.18,10.0,South,4.6,-,N/A,,Clear,180,2013-01-06 19:56:00
2:15 PM,19.4,12.2,74,30.17,10.0,South,5.8,-,N/A,,Clear,180,2013-01-06 20:15:00
2:35 PM,19.4,12.2,74,30.16,10.0,South,6.9,-,N/A,,Clear,180,2013-01-06 20:35:00
2:56 PM,19.4,14.0,80,30.15,10.0,South,5.8,-,N/A,,Clear,180,2013-01-06 20:56:00
3:15 PM,19.4,14.0,80,30.16,10.0,South,6.9,-,N/A,,Clear,180,2013-01-06 21:15:00
3:35 PM,19.4,14.0,80,30.15,10.0,South,6.9,-,N/A,,Clear,180,2013-01-06 21:35:00
3:55 PM,19.4,14.0,80,30.14,10.0,South,10.4,-,N/A,,Clear,180,2013-01-06 21:55:00
4:15 PM,19.4,14.0,80,30.15,10.0,South,6.9,-,N/A,,Clear,190,2013-01-06 22:15:00
4:36 PM,19.4,14.0,80,30.13,10.0,South,8.1,-,N/A,,Clear,180,2013-01-06 22:36:00
4:55 PM,19.4,14.0,80,30.13,10.0,South,5.8,-,N/A,,Clear,180,2013-01-06 22:55:00
5:15 PM,15.8,12.2,86,30.12,10.0,South,6.9,-,N/A,,Clear,180,2013-01-06 23:15:00
5:36 PM,17.6,12.2,79,30.11,10.0,South,3.5,-,N/A,,Clear,180,2013-01-06 23:36:00
5:55 PM,15.8,12.2,86,30.11,10.0,Calm,Calm,-,N/A,,Clear,0,2013-01-06 23:55:00
6:15 PM,15.8,12.2,86,30.09,10.0,SE,5.8,-,N/A,,Clear,140,2013-01-07 00:15:00
6:36 PM,17.6,12.2,79,30.09,10.0,SSE,5.8,-,N/A,,Clear,160,2013-01-07 00:36:00
6:55 PM,17.6,14.0,86,30.08,10.0,SSE,5.8,-,N/A,,Clear,160,2013-01-07 00:55:00
7:16 PM,17.6,14.0,86,30.08,10.0,SSE,8.1,-,N/A,,Clear,160,2013-01-07 01:16:00
7:36 PM,17.6,12.2,79,30.07,10.0,SSE,6.9,-,N/A,,Clear,160,2013-01-07 01:36:00
7:55 PM,17.6,12.2,79,30.06,10.0,South,8.1,-,N/A,,Clear,170,2013-01-07 01:55:00
8:16 PM,17.6,12.2,79,30.04,10.0,South,10.4,-,N/A,,Clear,170,2013-01-07 02:16:00
8:36 PM,17.6,14.0,86,30.03,10.0,South,6.9,-,N/A,,Clear,170,2013-01-07 02:36:00
9:16 PM,17.6,12.2,79,30.02,10.0,South,8.1,-,N/A,,Clear,170,2013-01-07 03:16:00
9:36 PM,19.4,14.0,80,30.00,10.0,South,11.5,-,N/A,,Clear,170,2013-01-07 03:36:00
9:55 PM,19.4,14.0,80,29.99,10.0,South,10.4,-,N/A,,Clear,180,2013-01-07 03:55:00
10:36 PM,23.0,17.6,80,29.97,10.0,South,17.3,-,N/A,,Clear,180,2013-01-07 04:36:00
10:55 PM,23.0,17.6,80,29.96,10.0,South,16.1,-,N/A,,Clear,180,2013-01-07 04:55:00
11:35 PM,23.0,17.6,80,29.95,10.0,South,17.3,-,N/A,,Clear,190,2013-01-07 05:35:00
11:55 PM,26.6,19.4,74,29.93,10.0,South,19.6,-,N/A,,Clear,190,2013-01-07 05:55:00